User: anonymous
Location: Arrakis Observatory
(44.1122°N, 95.7153°W)
Time: 08:20:43
(UTC-05:00)
Language:

SL-8 R/B - Orbit

View from above orbital plane
View from above orbital plane
View from above satellite
View from above satellite

Ground track
Ground track

The orbit data is extracted from the following two-line orbital elements,

1 32751U 08014B   14109.42871138  .00085992  00000-0  11407-2 0  8087
2 32751 098.1356 052.9029 0014353 027.2615 116.1807 15.57841401338563
Epoch (UTC): 19 April 2014 10:17:20
Eccentricity: 0.0014353
inclination: 98.1356°
perigee height: 384 km
apogee height: 403 km
right ascension of ascending node: 52.9029°
argument of perigee: 27.2615°
revolutions per day: 15.57841401
mean anomaly at epoch: 116.1807°
orbit number at epoch: 33856

The dashed part of the orbit path shows where the satellite is in the earth's shadow,  

DLR